[[{"header":{"parameterUnit":"m.s-1","parameterCategory":1,"la1":30.2991,"la2":30.254,"lo1":-89.0895,"lo2":-89.0444,"dy":0.0017,"dx":0.0017,"nx":28,"ny":28,"refTime":"2025-11-06T03:00:00:Z","depth":0,"parameterNumber":2,"parameterNumberName":"U-component_of_WINDS"},"data":[0,0,0,0,0,0,0,0,0,0,0,0,0,0,0,0,0,0,0,0,0,0,0,0,0,0,0,0,0,0,0,0,0,0,0,0,0,0,0,0,0,0,0,0,0,0,0,0,0,0,0,0,0,0,0,0,0,0,-0.1335,-0.1335,0,-0.1345,-0.1345,-0.1345,-0.1311,-0.131,-0.1309,-0.1308,-0.1319,-0.132,-0.1321,0,0,0,0,0,0,0,0,0,0,0,0,0,-0.1291,-0.1292,-0.1335,-0.1335,-0.1335,-0.1345,-0.1345,-0.1345,-0.1311,-0.131,-0.1309,-0.1307,-0.1319,-0.132,-0.1321,0,0,0,0,0,0,0,0,0,0,0,0,0,-0.1306,-0.1292,-0.1335,-0.132,-0.1318,-0.1345,-0.1345,-0.1345,-0.1311,-0.131,-0.1308,-0.1307,-0.1318,-0.132,-0.1322,-0.1364,0,0,-0.1327,-0.1328,0,0,0,0,0,0,0,0,-0.1305,-0.1308,-0.1322,-0.1321,-0.1319,-0.1325,-0.1333,-0.1351,-0.1312,-0.1314,-0.1308,-0.1306,-0.1322,-0.1324,-0.1329,-0.1364,-0.1365,-0.1328,-0.1329,-0.1329,-0.133,0,0,0,0,0,0,0,-0.1304,-0.1307,-0.1339,-0.1322,-0.1321,-0.1313,-0.1314,-0.1336,-0.1327,-0.1314,-0.1311,-0.1313,-0.1321,-0.1327,-0.1329,-0.1365,-0.1328,-0.1329,-0.133,-0.1331,-0.1438,-0.144,0,0,0,0,0,0,-0.1305,-0.1307,-0.1339,-0.1339,-0.1308,-0.1315,-0.1316,-0.1325,-0.1326,-0.1325,-0.1314,-0.1311,-0.1325,-0.1327,-0.1329,-0.138,-0.1329,-0.1331,-0.1332,-0.1436,-0.1438,-0.144,0,0,0,0,0,0,-0.1304,-0.1308,-0.1338,-0.1322,-0.1325,-0.1317,-0.1328,-0.1326,-0.1331,-0.1327,-0.1325,-0.1322,-0.1324,-0.1326,-0.1356,-0.138,-0.1332,-0.1334,-0.1434,-0.1437,-0.1439,-0.1482,0,0,0,0,0,0,-0.1303,-0.1308,-0.1323,-0.1323,-0.1326,-0.1364,-0.1329,-0.1327,-0.1335,-0.1331,-0.1333,-0.1332,-0.1323,-0.1353,-0.1358,-0.1382,-0.1335,-0.1432,-0.1435,-0.1439,-0.1478,-0.1485,-0.1492,0,0,0,0,0,-0.1301,-0.1334,-0.1324,-0.1328,-0.1345,-0.1365,-0.1368,-0.1356,-0.1337,-0.1352,-0.135,-0.1332,-0.1377,-0.1357,-0.1361,-0.1386,-0.1431,-0.1435,-0.1438,-0.1475,-0.1484,-0.1491,0,0,0,0,0,0,-0.1338,-0.1334,-0.1322,-0.1356,-0.1361,-0.136,-0.1379,-0.1365,-0.1376,-0.1372,-0.1357,-0.1358,-0.1391,-0.1391,-0.1369,-0.1428,-0.14,-0.1405,-0.1427,-0.1435,-0.1442,-0.1441,-0.1337,0,0,0,0,0,-0.135,-0.1366,-0.1362,-0.1392,-0.1395,-0.1387,-0.1395,-0.1386,-0.1391,-0.1393,-0.1392,-0.1398,-0.1414,-0.1424,-0.1438,-0.1478,-0.1479,-0.1498,-0.1504,-0.151,-0.1515,-0.1538,-0.1547,-0.1453,-0.1453,-0.1453,0,0,-0.1374,-0.1374,-0.1385,-0.1399,-0.1402,-0.1421,-0.1389,-0.1409,-0.1423,-0.1396,-0.1424,-0.1424,-0.143,-0.1465,-0.1481,-0.1467,-0.1541,-0.1515,-0.1519,-0.1521,-0.1543,-0.1552,-0.156,-0.1456,-0.1455,-0.1455,0,0,-0.1429,-0.143,-0.1456,-0.146,-0.1465,-0.146,-0.1466,-0.1467,-0.1466,-0.1494,-0.1475,-0.1491,-0.1518,-0.1524,-0.153,-0.1589,-0.1574,-0.1594,-0.163,-0.1653,-0.166,-0.1667,-0.1689,-0.1698,-0.1599,-0.1599,-0.1599,0,-0.1459,-0.1485,-0.1471,-0.1494,-0.1501,-0.1478,-0.1505,-0.151,-0.1519,-0.1526,-0.151,-0.1544,-0.1546,-0.1584,-0.1598,-0.1604,-0.1612,-0.1594,-0.166,-0.1666,-0.1672,-0.1694,-0.1702,-0.1601,-0.1601,-0.1601,-0.1601,0,-0.1523,-0.1542,-0.1562,-0.1573,-0.1582,-0.1607,-0.1598,-0.161,-0.16,-0.1597,-0.1627,-0.1629,-0.1644,-0.1652,-0.1642,-0.1689,-0.168,-0.1662,-0.1634,-0.1684,-0.1704,-0.1712,-0.1605,-0.1604,-0.1603,-0.1603,0,0,-0.16,-0.1604,-0.1612,-0.1617,-0.1621,-0.1636,-0.166,-0.1675,-0.1686,-0.1694,-0.1715,-0.1739,-0.1724,-0.1731,-0.1722,-0.1742,-0.1791,-0.1722,-0.1722,-0.1736,-0.1845,-0.1859,-0.1869,-0.1781,-0.1783,-0.1784,-0.1845,0,-0.1655,-0.1696,-0.1686,-0.1727,-0.1745,-0.1724,-0.1746,-0.1752,-0.175,-0.1766,-0.1764,-0.1782,-0.1759,-0.1763,-0.1782,-0.1781,-0.1813,-0.1776,-0.1802,-0.1803,-0.1802,-0.1879,-0.1893,-0.1951,-0.1853,-0.1854,-0.1855,0,-0.1725,-0.1736,-0.1779,-0.1783,-0.179,-0.1809,-0.1823,-0.1838,-0.1845,-0.1842,-0.1852,-0.1839,-0.1865,-0.1837,-0.1873,-0.1848,-0.1858,-0.186,-0.1862,-0.1864,-0.1833,-0.1885,-0.1969,-0.1978,-0.1867,-0.1866,-0.1865,0,-0.1779,-0.1804,-0.1834,-0.1839,-0.1843,-0.1858,-0.1861,-0.1866,-0.1876,-0.1889,-0.1895,-0.191,-0.1919,-0.1932,-0.1924,-0.1904,-0.1963,-0.1933,-0.1963,-0.1963,-0.1976,-0.1976,-0.2064,-0.1981,-0.1981,-0.1981,-0.1981,0,-0.1842,-0.187,-0.1859,-0.1877,-0.1908,-0.1896,-0.1928,-0.1928,-0.1934,-0.1953,-0.1936,-0.1954,-0.1943,-0.1961,-0.1956,-0.1988,-0.1992,-0.1991,-0.199,-0.1994,-0.1994,-0.2,-0.1997,-0.1983,-0.1983,-0.1982,-0.1982,0,-0.1907,-0.1901,-0.1932,-0.1934,-0.1936,-0.1959,-0.1961,-0.1979,-0.1976,-0.2001,-0.2006,-0.2002,-0.2023,-0.2017,-0.2039,-0.2036,-0.2077,-0.207,-0.2075,-0.2073,-0.2104,-0.2102,-0.22,-0.2214,-0.2121,-0.2122,-0.2122,0,-0.1949,-0.197,-0.1974,-0.1986,-0.199,-0.2008,-0.2019,-0.2008,-0.202,-0.2031,-0.2048,-0.2068,-0.2082,-0.2117,-0.2117,-0.2135,-0.2128,-0.2162,-0.2131,-0.2135,-0.2131,-0.213,-0.2133,-0.2168,-0.2169,-0.217,-0.2171,0,-0.2023,-0.2019,-0.2034,-0.205,-0.2063,-0.2074,-0.2084,-0.2095,-0.2085,-0.21,-0.2121,-0.2132,-0.2156,-0.2176,-0.2192,-0.2196,-0.2183,-0.2181,-0.2189,-0.2193,-0.2196,-0.2197,-0.2093,-0.2179,-0.2178,-0.2177,-0.2177,-0.2177,-0.2079,-0.2097,-0.2104,-0.2122,-0.2129,-0.2139,-0.2156,-0.2156,-0.2173,-0.2191,-0.2184,-0.2209,-0.2218,-0.2238,-0.2245,-0.2265,-0.2252,-0.2264,-0.2267,-0.227,-0.2275,-0.2192,-0.2268,-0.2268,-0.2267,-0.2267,-0.2267,0,-0.2153,-0.2157,-0.2174,-0.2189,-0.2204,-0.2189,-0.22,-0.2214,-0.2236,-0.2244,-0.226,-0.2285,-0.2305,-0.2307,-0.2326,-0.2342,-0.2337,-0.2348,-0.2347,-0.2349,-0.2284,-0.2276,-0.2352,-0.2352,-0.2352,-0.2352,-0.2352,-0.2352,-0.2194,-0.2225,-0.2223,-0.2258,-0.2261,-0.2285,-0.2292,-0.2302,-0.231,-0.2339,-0.2355,-0.2356,-0.2363,-0.2383,-0.2401,-0.2401,-0.241,-0.2423,-0.2421,-0.2361,-0.2353,-0.2345,-0.2337,-0.2425,-0.2425,-0.2484,-0.2485,-0.2485]},{"header":{"parameterUnit":"m.s-1","parameterCategory":1,"la1":30.2991,"la2":30.254,"lo1":-89.0895,"lo2":-89.0444,"dy":0.0017,"dx":0.0017,"nx":28,"ny":28,"refTime":"2025-11-06T03:00:00:Z","depth":0,"parameterNumber":3,"parameterNumberName":"V-component_of_WINDS"},"data":[0,0,0,0,0,0,0,0,0,0,0,0,0,0,0,0,0,0,0,0,0,0,0,0,0,0,0,0,0,0,0,0,0,0,0,0,0,0,0,0,0,0,0,0,0,0,0,0,0,0,0,0,0,0,0,0,0,0,1.325,1.325,0,1.325,1.325,1.325,1.3283,1.3284,1.3285,1.3286,1.3282,1.3281,1.328,0,0,0,0,0,0,0,0,0,0,0,0,0,1.3274,1.3273,1.325,1.325,1.325,1.325,1.325,1.325,1.3283,1.3284,1.3285,1.3286,1.3282,1.3281,1.328,0,0,0,0,0,0,0,0,0,0,0,0,0,1.3268,1.3273,1.325,1.3266,1.3268,1.325,1.325,1.325,1.3283,1.3284,1.3285,1.3287,1.3282,1.3281,1.328,1.3245,0,0,1.3276,1.3275,0,0,0,0,0,0,0,0,1.3268,1.3267,1.3264,1.3265,1.3267,1.3268,1.3257,1.3248,1.3282,1.3277,1.3286,1.3287,1.3276,1.3275,1.3272,1.3245,1.3245,1.3275,1.3275,1.3274,1.3274,0,0,0,0,0,0,0,1.3268,1.3267,1.325,1.3264,1.3266,1.3273,1.3273,1.3256,1.3269,1.3278,1.328,1.328,1.3277,1.3273,1.3272,1.3245,1.3275,1.3274,1.3273,1.3273,1.3189,1.3188,0,0,0,0,0,0,1.3267,1.3267,1.325,1.325,1.3271,1.3271,1.3272,1.3266,1.3269,1.3271,1.3279,1.3281,1.3275,1.3274,1.3272,1.3232,1.3274,1.3273,1.3272,1.319,1.3189,1.3187,0,0,0,0,0,0,1.3267,1.3265,1.325,1.3259,1.3258,1.3269,1.3263,1.3266,1.3262,1.327,1.3272,1.3273,1.3276,1.3274,1.3252,1.3232,1.3272,1.3271,1.3192,1.319,1.3188,1.315,0,0,0,0,0,0,1.3268,1.3265,1.3253,1.3259,1.3257,1.323,1.3262,1.3265,1.326,1.3264,1.3265,1.3267,1.3277,1.3254,1.3251,1.3231,1.327,1.3194,1.3191,1.3189,1.3153,1.3147,1.3142,0,0,0,0,0,1.3269,1.3241,1.3252,1.325,1.3242,1.3229,1.3228,1.3242,1.3259,1.3246,1.3251,1.3267,1.3235,1.3251,1.3248,1.3227,1.3195,1.3192,1.3189,1.3156,1.3148,1.3142,0,0,0,0,0,0,1.3231,1.3242,1.3254,1.3228,1.3228,1.3235,1.3219,1.3233,1.3227,1.323,1.3246,1.3246,1.3221,1.3222,1.324,1.3194,1.3218,1.3214,1.3194,1.3187,1.3181,1.3181,1.3269,0,0,0,0,0,1.322,1.321,1.322,1.3196,1.3195,1.3207,1.3202,1.3213,1.3212,1.3212,1.3215,1.3213,1.3202,1.3195,1.3186,1.3154,1.3154,1.3138,1.3133,1.3128,1.3124,1.3107,1.3099,1.3177,1.3177,1.3177,0,0,1.3197,1.3202,1.3194,1.3188,1.3189,1.3177,1.3207,1.3192,1.3183,1.3209,1.3188,1.3191,1.3189,1.3162,1.315,1.3162,1.3103,1.3124,1.312,1.3118,1.3103,1.3095,1.3089,1.3175,1.3175,1.3175,0,0,1.3147,1.3151,1.3131,1.3132,1.3133,1.3141,1.3137,1.3142,1.3145,1.3125,1.3144,1.3133,1.3115,1.3113,1.3109,1.3061,1.3074,1.3057,1.3026,1.301,1.3004,1.2998,1.298,1.2973,1.3053,1.3053,1.3053,0,1.3117,1.3101,1.3118,1.3103,1.31,1.3125,1.3104,1.3104,1.3101,1.3098,1.3112,1.309,1.3091,1.3063,1.3052,1.3048,1.3042,1.3056,1.3003,1.2998,1.2993,1.2976,1.2969,1.3051,1.3051,1.3052,1.3052,0,1.3064,1.3052,1.3036,1.3035,1.303,1.3012,1.3025,1.3018,1.303,1.3036,1.3015,1.3017,1.3009,1.3004,1.3014,1.2977,1.2985,1.3001,1.3025,1.2983,1.2967,1.2961,1.3048,1.3049,1.3049,1.305,0,0,1.2989,1.2999,1.2993,1.2992,1.2997,1.2987,1.297,1.2964,1.2957,1.2955,1.294,1.2925,1.294,1.2936,1.2947,1.2932,1.2892,1.295,1.295,1.2938,1.2851,1.2838,1.283,1.2902,1.2901,1.29,1.2851,0,1.2941,1.2914,1.2929,1.2899,1.2888,1.2912,1.2897,1.2897,1.2903,1.2894,1.29,1.2889,1.291,1.2908,1.2895,1.29,1.2875,1.2904,1.2887,1.2886,1.2886,1.2822,1.2808,1.2761,1.2845,1.2844,1.2843,0,1.288,1.2877,1.2846,1.2853,1.2849,1.2835,1.2831,1.2822,1.2822,1.2828,1.2824,1.2838,1.2821,1.2846,1.2822,1.2842,1.2836,1.2838,1.2836,1.2834,1.2861,1.2817,1.2747,1.2739,1.2834,1.2834,1.2835,0,1.2828,1.2816,1.2796,1.2795,1.2802,1.2792,1.2795,1.2797,1.2792,1.2787,1.2784,1.2777,1.2773,1.2767,1.2779,1.2796,1.2753,1.2779,1.2755,1.2755,1.2744,1.2744,1.267,1.2742,1.2742,1.2742,1.2742,0,1.2771,1.2751,1.2773,1.276,1.2738,1.2756,1.2733,1.2738,1.274,1.2728,1.2748,1.2736,1.2753,1.2743,1.2752,1.273,1.2728,1.2731,1.2733,1.2728,1.2728,1.2724,1.2727,1.274,1.2741,1.2741,1.2742,0,1.2708,1.2722,1.2702,1.2711,1.2713,1.2696,1.2703,1.2691,1.2699,1.2684,1.2681,1.2693,1.2682,1.2694,1.2683,1.2689,1.2659,1.2667,1.2659,1.2661,1.2636,1.2638,1.2557,1.2547,1.2626,1.2625,1.2624,0,1.2671,1.2656,1.2664,1.2658,1.266,1.265,1.2645,1.2663,1.2657,1.2657,1.2645,1.2636,1.2629,1.261,1.2617,1.2609,1.2615,1.2588,1.2614,1.261,1.2614,1.2614,1.2612,1.2582,1.2581,1.258,1.2579,0,1.2602,1.261,1.2603,1.2599,1.2594,1.2591,1.259,1.2583,1.2601,1.2594,1.2583,1.2578,1.2568,1.2558,1.2552,1.2554,1.2569,1.2571,1.2565,1.2559,1.2555,1.2556,1.2643,1.2572,1.2573,1.2574,1.2574,1.2574,1.255,1.2538,1.2542,1.2534,1.2535,1.2533,1.2523,1.253,1.2522,1.2516,1.2527,1.2514,1.2515,1.2509,1.2508,1.2497,1.2509,1.25,1.2498,1.2495,1.2491,1.2558,1.2496,1.2496,1.2496,1.2497,1.2497,0,1.2481,1.2485,1.2478,1.2476,1.247,1.2487,1.2487,1.248,1.2468,1.2469,1.2462,1.245,1.2441,1.2448,1.244,1.243,1.2437,1.2427,1.2427,1.2427,1.2481,1.2487,1.2422,1.2422,1.2422,1.2422,1.2422,1.2422,1.2445,1.2425,1.2434,1.2415,1.2419,1.2407,1.2405,1.2404,1.2404,1.239,1.2383,1.2388,1.2391,1.2384,1.2376,1.2378,1.2374,1.2361,1.2366,1.2416,1.2423,1.243,1.2436,1.2361,1.236,1.2312,1.2312,1.2312]}]]